Weather History for Rome Ciampino, Italy

Change the Weather History Date:

Tuesday, December 13, 2011

  Actual Average Record
Temperature  
Mean Temperature 50 °F -  
Max Temperature 57 °F 54 °F 61 °F (2014)
Min Temperature 42 °F 38 °F 28 °F (2012)
Degree Days  
Heating Degree Days 16    
Moisture  
Dew Point 45 °F    
Average Humidity 82    
Maximum Humidity 93    
Minimum Humidity 63    
Precipitation  
Precipitation 0.00 in 0.14 in - ()
Sea Level Pressure  
Sea Level Pressure 30.04 in    
Wind  
Wind Speed 4 mph ()    
Max Wind Speed 9 mph    
Max Gust Speed -    
Visibility 6.2 miles    
Events      
Averages and records for this station are not official NWS values.
T = Trace of Precipitation, MM = Missing Value Source: Averaged Metar Reports

Daily Weather History Graph

Daily Weather History Graph

Search for Another Location

Airport:

Trip Planner

Search our weather history database for the weather conditions in past years. The results will help you decide how hot, cold, wet, or windy it might be!

Date:

Astronomy

Dec. 13, 2011 Rise Set
Actual Time 7:28 AM CET 4:39 PM CET
Civil Twilight 6:56 AM CET 5:10 PM CET
Nautical Twilight 6:21 AM CET 5:45 PM CET
Astronomical Twilight 5:47 AM CET 6:19 PM CET
Moon 7:37 PM CET (12/13) 9:26 AM CET (12/13)
Length of Visible Light 10h 13m
Length of Day
9h 10m
Waning Gibbous, 92% of the Moon is Illuminated
Dec 13
Waning Gibbous
Dec 18
Last Quarter
Dec 24
New
Jan 1
First Quarter
Jan 9
Full

Hourly Weather History & Observations

Time (CET) Temp. Windchill Dew Point Humidity Pressure Visibility Wind Dir Wind Speed Gust Speed Precip Events Conditions
12:15 AM 55.4 °F - 48.2 °F 77% 29.95 in 6.2 mi South 6.9 mph - N/A   Scattered Clouds
12:45 AM 55.4 °F - 50.0 °F 82% 29.95 in 6.2 mi South 5.8 mph - N/A   Scattered Clouds
1:15 AM 53.6 °F - 50.0 °F 88% 29.95 in 6.2 mi SSE 9.2 mph - N/A   Scattered Clouds
1:45 AM 53.6 °F - 50.0 °F 88% 29.95 in 6.2 mi SSE 8.1 mph - N/A   Scattered Clouds
2:15 AM 53.6 °F - 50.0 °F 88% 29.95 in 6.2 mi West 4.6 mph - N/A   Scattered Clouds
2:45 AM 51.8 °F - 46.4 °F 82% 29.95 in 6.2 mi NW 2.3 mph - N/A   Scattered Clouds
3:15 AM 51.8 °F - 46.4 °F 82% 29.95 in 6.2 mi NW 2.3 mph - N/A   Scattered Clouds
3:45 AM 50.0 °F - 44.6 °F 82% 29.95 in 6.2 mi North 3.5 mph - N/A   Partly Cloudy
4:15 AM 50.0 °F - 44.6 °F 82% 29.95 in 6.2 mi NNW 3.5 mph - N/A   Partly Cloudy
4:45 AM 48.2 °F - 44.6 °F 87% 29.95 in 6.2 mi North 2.3 mph - N/A   Partly Cloudy
5:15 AM 46.4 °F - 44.6 °F 93% 29.95 in 6.2 mi North 2.3 mph - N/A   Partly Cloudy
5:45 AM 42.8 °F - 41.0 °F 93% 29.98 in 6.2 mi Calm Calm - N/A   Partly Cloudy
6:15 AM 42.8 °F - 41.0 °F 93% 29.98 in 6.2 mi Calm Calm - N/A   Partly Cloudy
6:45 AM 42.8 °F - 41.0 °F 93% 29.98 in 6.2 mi NE 2.3 mph - N/A   Partly Cloudy
7:15 AM 42.8 °F - 41.0 °F 93% 29.98 in 6.2 mi Calm Calm - N/A   Partly Cloudy
7:45 AM 42.8 °F - 41.0 °F 93% 30.01 in 6.2 mi SSE 2.3 mph - N/A   Partly Cloudy
8:15 AM 44.6 °F - 42.8 °F 93% 30.01 in 6.2 mi East 2.3 mph - N/A   Partly Cloudy
8:45 AM 46.4 °F - 44.6 °F 93% 30.04 in 6.2 mi ESE 2.3 mph - N/A   Partly Cloudy
9:15 AM 50.0 °F - 46.4 °F 87% 30.04 in 6.2 mi NNE 2.3 mph - N/A   Partly Cloudy
9:45 AM 51.8 °F - 48.2 °F 88% 30.04 in 6.2 mi NNE 1.2 mph - N/A   Partly Cloudy
10:15 AM 51.8 °F - 48.2 °F 88% 30.06 in 6.2 mi NE 2.3 mph - N/A   Partly Cloudy
10:45 AM 53.6 °F - 48.2 °F 82% 30.06 in 6.2 mi NNE 2.3 mph - N/A   Scattered Clouds
11:15 AM 53.6 °F - 46.4 °F 77% 30.06 in 6.2 mi ENE 2.3 mph - N/A   Scattered Clouds
11:45 AM 55.4 °F - 46.4 °F 72% 30.06 in 6.2 mi NNW 3.5 mph - N/A   Scattered Clouds
12:15 PM 55.4 °F - 46.4 °F 72% 30.06 in 6.2 mi North 2.3 mph - N/A   Scattered Clouds
12:45 PM 55.4 °F - 46.4 °F 72% 30.06 in 6.2 mi North 3.5 mph - N/A   Scattered Clouds
1:15 PM 57.2 °F - 44.6 °F 63% 30.06 in 6.2 mi NNE 3.5 mph - N/A   Scattered Clouds
1:45 PM 57.2 °F - 44.6 °F 63% 30.06 in 6.2 mi North 3.5 mph - N/A   Mostly Cloudy
2:15 PM 57.2 °F - 44.6 °F 63% 30.06 in 6.2 mi NE 2.3 mph - N/A   Mostly Cloudy
2:45 PM 55.4 °F - 44.6 °F 67% 30.06 in 6.2 mi NNE 2.3 mph - N/A   Mostly Cloudy
3:15 PM 55.4 °F - 44.6 °F 67% 30.06 in 6.2 mi ENE 1.2 mph - N/A   Scattered Clouds
3:45 PM 53.6 °F - 44.6 °F 72% 30.06 in 6.2 mi ENE 3.5 mph - N/A   Scattered Clouds
4:15 PM 53.6 °F - 42.8 °F 67% 30.06 in 6.2 mi ENE 1.2 mph - N/A   Scattered Clouds
4:45 PM 51.8 °F - 42.8 °F 71% 30.06 in 6.2 mi East 2.3 mph - N/A   Scattered Clouds
5:15 PM 48.2 °F - 42.8 °F 82% 30.06 in 6.2 mi ESE 4.6 mph - N/A   Scattered Clouds
5:45 PM 48.2 °F - 42.8 °F 82% 30.06 in 6.2 mi SE 1.2 mph - N/A   Partly Cloudy
6:15 PM 48.2 °F - 44.6 °F 87% 30.09 in - SE 2.3 mph - N/A   Clear
6:45 PM 48.2 °F - 44.6 °F 87% 30.12 in - SE 2.3 mph - N/A   Clear
7:15 PM 48.2 °F - 44.6 °F 87% 30.12 in - SE 2.3 mph - N/A   Clear
7:45 PM 48.2 °F - 44.6 °F 87% 30.12 in - SE 2.3 mph - N/A   Clear
8:15 PM 46.4 °F 44.3 °F 42.8 °F 87% 30.12 in 6.2 mi ESE 4.6 mph - N/A   Partly Cloudy
8:45 PM 48.2 °F - 42.8 °F 82% 30.12 in 6.2 mi ESE 9.2 mph - N/A   Partly Cloudy
9:15 PM 48.2 °F - 42.8 °F 82% 30.12 in 6.2 mi ESE 8.1 mph - N/A   Partly Cloudy
9:45 PM 48.2 °F - 41.0 °F 76% 30.12 in 6.2 mi East 8.1 mph - N/A   Partly Cloudy
10:15 PM 48.2 °F - 41.0 °F 76% 30.12 in 6.2 mi ESE 8.1 mph - N/A   Scattered Clouds
10:45 PM 50.0 °F - 44.6 °F 82% 30.12 in 6.2 mi SSE 2.3 mph - N/A   Scattered Clouds
11:15 PM 50.0 °F - 44.6 °F 82% 30.12 in 6.2 mi SSE 2.3 mph - N/A   Scattered Clouds
11:45 PM 50.0 °F - 46.4 °F 87% 30.12 in 6.2 mi Calm Calm - N/A   Scattered Clouds